Time,TemperatureF,DewpointF,PressureIn,WindDirection,WindDirectionDegrees,WindSpeedMPH,WindSpeedGustMPH,Humidity,HourlyPrecipIn,Conditions,Clouds,dailyrainin,SoftwareType,DateUTC
2013-02-21 00:00:00,19.4,13.0,30.27,NNW,344,9.0,16.0,77,0.00,,,0.00,weatherlink.com 1.10,2013-02-21 05:00:00,
2013-02-21 00:15:00,19.6,14.0,30.27,North,7,17.0,18.0,78,0.00,,,0.00,weatherlink.com 1.10,2013-02-21 05:15:00,
2013-02-21 00:30:00,19.6,14.0,30.27,NNE,16,17.0,17.0,78,0.00,,,0.00,weatherlink.com 1.10,2013-02-21 05:30:00,
2013-02-21 00:45:00,19.6,14.0,30.27,NNE,23,13.0,15.0,78,0.00,,,0.00,weatherlink.com 1.10,2013-02-21 05:45:00,
2013-02-21 01:00:00,19.4,13.0,30.27,NNW,338,7.0,15.0,77,0.00,,,0.00,weatherlink.com 1.10,2013-02-21 06:00:00,
2013-02-21 01:15:00,19.2,13.0,30.28,NE,47,10.0,14.0,78,0.00,,,0.00,weatherlink.com 1.10,2013-02-21 06:15:00,
2013-02-21 01:30:00,19.2,14.0,30.28,NNE,13,9.0,12.0,79,0.00,,,0.00,weatherlink.com 1.10,2013-02-21 06:30:00,
2013-02-21 01:45:00,19.2,14.0,30.29,NNE,16,11.0,14.0,79,0.00,,,0.00,weatherlink.com 1.10,2013-02-21 06:45:00,
2013-02-21 02:00:00,18.9,13.0,30.29,NNW,340,7.0,16.0,78,0.00,,,0.00,weatherlink.com 1.10,2013-02-21 07:00:00,
2013-02-21 02:15:00,18.8,12.0,30.29,NNE,32,18.0,18.0,76,0.00,,,0.00,weatherlink.com 1.10,2013-02-21 07:15:00,
2013-02-21 02:30:00,18.6,13.0,30.30,NNE,21,8.0,16.0,78,0.00,,,0.00,weatherlink.com 1.10,2013-02-21 07:30:00,
2013-02-21 02:45:00,18.3,13.0,30.30,NW,323,2.0,12.0,79,0.00,,,0.00,weatherlink.com 1.10,2013-02-21 07:45:00,
2013-02-21 03:00:00,18.1,12.0,30.31,NNW,343,4.0,11.0,77,0.00,,,0.00,weatherlink.com 1.10,2013-02-21 08:00:00,
2013-02-21 03:15:00,18.2,13.0,30.31,North,354,3.0,9.0,79,0.00,,,0.00,weatherlink.com 1.10,2013-02-21 08:15:00,
2013-02-21 03:30:00,18.1,12.0,30.31,NNE,27,6.0,7.0,77,0.00,,,0.00,weatherlink.com 1.10,2013-02-21 08:30:00,
2013-02-21 03:45:00,18.1,13.0,30.31,NNW,327,5.0,11.0,79,0.00,,,0.00,weatherlink.com 1.10,2013-02-21 08:45:00,
2013-02-21 04:01:00,18.0,13.0,30.31,NNE,27,9.0,11.0,79,0.00,,,0.00,weatherlink.com 1.10,2013-02-21 09:01:00,
2013-02-21 04:15:00,18.1,13.0,30.32,WNW,295,3.0,11.0,79,0.00,,,0.00,weatherlink.com 1.10,2013-02-21 09:15:00,
2013-02-21 04:30:00,18.1,12.0,30.32,NNE,15,12.0,12.0,78,0.00,,,0.00,weatherlink.com 1.10,2013-02-21 09:30:00,
2013-02-21 04:45:00,18.0,13.0,30.31,NNE,22,10.0,13.0,79,0.00,,,0.00,weatherlink.com 1.10,2013-02-21 09:45:00,
2013-02-21 05:00:00,17.7,12.0,30.32,NNE,27,10.0,13.0,78,0.00,,,0.00,weatherlink.com 1.10,2013-02-21 10:00:00,
2013-02-21 05:15:00,17.6,12.0,30.32,NNE,29,12.0,14.0,79,0.00,,,0.00,weatherlink.com 1.10,2013-02-21 10:15:00,
2013-02-21 05:31:00,17.4,12.0,30.33,NNE,32,9.0,14.0,80,0.00,,,0.00,weatherlink.com 1.10,2013-02-21 10:31:00,
2013-02-21 05:46:00,17.3,12.0,30.34,NNE,32,12.0,15.0,79,0.00,,,0.00,weatherlink.com 1.10,2013-02-21 10:46:00,
2013-02-21 06:01:00,17.0,12.0,30.35,NNE,22,9.0,12.0,80,0.00,,,0.00,weatherlink.com 1.10,2013-02-21 11:01:00,
2013-02-21 06:16:00,16.8,12.0,30.35,NNE,25,11.0,14.0,81,0.00,,,0.00,weatherlink.com 1.10,2013-02-21 11:16:00,
2013-02-21 06:31:00,16.7,12.0,30.35,NNE,31,14.0,14.0,80,0.00,,,0.00,weatherlink.com 1.10,2013-02-21 11:31:00,
2013-02-21 06:46:00,16.6,11.0,30.36,North,360,12.0,14.0,80,0.00,,,0.00,weatherlink.com 1.10,2013-02-21 11:46:00,
2013-02-21 07:01:00,16.5,12.0,30.38,NNE,25,11.0,12.0,81,0.00,,,0.00,weatherlink.com 1.10,2013-02-21 12:01:00,
2013-02-21 07:16:00,16.6,12.0,30.38,NNE,23,9.0,11.0,81,0.00,,,0.00,weatherlink.com 1.10,2013-02-21 12:16:00,
2013-02-21 07:31:00,16.4,11.0,30.39,NE,36,8.0,11.0,80,0.00,,,0.00,weatherlink.com 1.10,2013-02-21 12:31:00,
2013-02-21 07:46:00,16.4,11.0,30.41,NNW,346,5.0,14.0,80,0.00,,,0.00,weatherlink.com 1.10,2013-02-21 12:46:00,
2013-02-21 08:01:00,16.2,11.0,30.42,NNE,23,12.0,14.0,79,0.00,,,0.00,weatherlink.com 1.10,2013-02-21 13:01:00,
2013-02-21 08:16:00,16.0,11.0,30.43,NNE,19,9.0,12.0,80,0.00,,,0.00,weatherlink.com 1.10,2013-02-21 13:16:00,
2013-02-21 08:31:00,15.8,10.0,30.44,NNE,18,11.0,14.0,79,0.00,,,0.00,weatherlink.com 1.10,2013-02-21 13:31:00,
2013-02-21 08:46:00,15.4,10.0,30.43,NE,34,16.0,18.0,79,0.00,,,0.00,weatherlink.com 1.10,2013-02-21 13:46:00,
2013-02-21 09:01:00,15.1,10.0,30.42,NE,44,16.0,18.0,80,0.00,,,0.00,weatherlink.com 1.10,2013-02-21 14:01:00,
2013-02-21 09:16:00,14.8,10.0,30.42,NE,34,16.0,20.0,80,0.00,,,0.00,weatherlink.com 1.10,2013-02-21 14:16:00,
2013-02-21 09:31:00,14.3,10.0,30.41,NE,39,18.0,22.0,81,0.00,,,0.00,weatherlink.com 1.10,2013-02-21 14:31:00,
2013-02-21 09:47:00,14.0,9.0,30.41,NE,49,17.0,22.0,81,0.00,,,0.00,weatherlink.com 1.10,2013-02-21 14:47:00,
2013-02-21 10:02:00,13.7,9.0,30.41,NE,44,12.0,18.0,80,0.00,,,0.00,weatherlink.com 1.10,2013-02-21 15:02:00,
2013-02-21 10:17:00,13.7,9.0,30.44,NE,42,12.0,15.0,80,0.00,,,0.00,weatherlink.com 1.10,2013-02-21 15:17:00,
2013-02-21 10:32:00,13.7,8.0,30.46,NE,49,10.0,14.0,78,0.00,,,0.00,weatherlink.com 1.10,2013-02-21 15:32:00,
2013-02-21 10:47:00,13.7,8.0,30.45,NE,49,12.0,14.0,78,0.00,,,0.00,weatherlink.com 1.10,2013-02-21 15:47:00,
2013-02-21 11:02:00,13.8,8.0,30.44,NE,44,10.0,14.0,78,0.00,,,0.00,weatherlink.com 1.10,2013-02-21 16:02:00,
2013-02-21 11:17:00,13.5,8.0,30.43,NE,42,12.0,15.0,78,0.00,,,0.00,weatherlink.com 1.10,2013-02-21 16:17:00,
2013-02-21 11:32:00,13.4,8.0,30.44,NE,46,9.0,11.0,78,0.00,,,0.00,weatherlink.com 1.10,2013-02-21 16:32:00,
2013-02-21 11:47:00,13.8,8.0,30.44,ENE,58,8.0,14.0,78,0.00,,,0.00,weatherlink.com 1.10,2013-02-21 16:47:00,
2013-02-21 12:02:00,13.7,8.0,30.44,ENE,58,13.0,16.0,79,0.00,,,0.00,weatherlink.com 1.10,2013-02-21 17:02:00,
2013-02-21 12:17:00,13.8,9.0,30.45,East,83,8.0,12.0,81,0.00,,,0.00,weatherlink.com 1.10,2013-02-21 17:17:00,
2013-02-21 12:32:00,13.7,9.0,30.45,ENE,77,9.0,13.0,80,0.00,,,0.00,weatherlink.com 1.10,2013-02-21 17:32:00,
2013-02-21 12:47:00,14.0,9.0,30.45,East,87,5.0,8.0,81,0.00,,,0.00,weatherlink.com 1.10,2013-02-21 17:47:00,
2013-02-21 13:02:00,14.4,10.0,30.43,ENE,68,8.0,10.0,82,0.00,,,0.00,weatherlink.com 1.10,2013-02-21 18:02:00,
2013-02-21 13:17:00,14.5,10.0,30.45,NE,40,6.0,10.0,82,0.00,,,0.00,weatherlink.com 1.10,2013-02-21 18:17:00,
2013-02-21 13:33:00,14.8,10.0,30.44,NE,55,4.0,6.0,81,0.00,,,0.00,weatherlink.com 1.10,2013-02-21 18:33:00,
2013-02-21 13:48:00,15.2,10.0,30.45,ENE,65,2.0,5.0,81,0.00,,,0.00,weatherlink.com 1.10,2013-02-21 18:48:00,
2013-02-21 14:03:00,15.7,11.0,30.43,NE,44,5.0,6.0,80,0.00,,,0.00,weatherlink.com 1.10,2013-02-21 19:03:00,
2013-02-21 14:18:00,15.9,11.0,30.44,WNW,295,0.0,4.0,80,0.00,,,0.00,weatherlink.com 1.10,2013-02-21 19:18:00,
2013-02-21 14:33:00,16.6,11.0,30.44,WNW,285,0.0,4.0,79,0.00,,,0.00,weatherlink.com 1.10,2013-02-21 19:33:00,
2013-02-21 14:48:00,16.6,11.0,30.43,East,79,1.0,3.0,79,0.00,,,0.00,weatherlink.com 1.10,2013-02-21 19:48:00,
2013-02-21 15:03:00,17.9,12.0,30.43,NE,37,1.0,4.0,76,0.00,,,0.00,weatherlink.com 1.10,2013-02-21 20:03:00,
2013-02-21 15:18:00,17.4,12.0,30.42,East,84,1.0,5.0,79,0.00,,,0.00,weatherlink.com 1.10,2013-02-21 20:18:00,
2013-02-21 15:33:00,17.4,12.0,30.42,East,94,5.0,7.0,79,0.00,,,0.00,weatherlink.com 1.10,2013-02-21 20:33:00,
2013-02-21 15:48:00,17.7,13.0,30.41,East,91,8.0,9.0,80,0.00,,,0.00,weatherlink.com 1.10,2013-02-21 20:48:00,
2013-02-21 16:03:00,17.8,13.0,30.40,East,86,9.0,10.0,80,0.00,,,0.00,weatherlink.com 1.10,2013-02-21 21:03:00,
2013-02-21 16:18:00,17.5,13.0,30.39,East,84,8.0,10.0,81,0.00,,,0.00,weatherlink.com 1.10,2013-02-21 21:18:00,
2013-02-21 16:33:00,18.0,13.0,30.40,East,94,7.0,10.0,82,0.00,,,0.00,weatherlink.com 1.10,2013-02-21 21:33:00,
2013-02-21 16:48:00,18.0,13.0,30.40,East,84,6.0,9.0,82,0.00,,,0.00,weatherlink.com 1.10,2013-02-21 21:48:00,
2013-02-21 17:04:00,18.0,13.0,30.40,East,94,9.0,10.0,82,0.00,,,0.00,weatherlink.com 1.10,2013-02-21 22:04:00,
2013-02-21 17:19:00,18.1,14.0,30.42,ESE,103,6.0,10.0,83,0.00,,,0.00,weatherlink.com 1.10,2013-02-21 22:19:00,
2013-02-21 17:34:00,18.3,14.0,30.43,SSE,160,2.0,7.0,83,0.00,,,0.00,weatherlink.com 1.10,2013-02-21 22:34:00,
2013-02-21 17:49:00,18.5,14.0,30.44,NW,321,0.0,4.0,82,0.00,,,0.00,weatherlink.com 1.10,2013-02-21 22:49:00,
2013-02-21 18:04:00,18.3,14.0,30.43,SSE,160,2.0,4.0,83,0.00,,,0.00,weatherlink.com 1.10,2013-02-21 23:04:00,
2013-02-21 18:19:00,18.4,14.0,30.43,ESE,105,3.0,6.0,84,0.00,,,0.00,weatherlink.com 1.10,2013-02-21 23:19:00,
2013-02-21 18:34:00,18.6,15.0,30.42,ESE,119,4.0,6.0,84,0.00,,,0.00,weatherlink.com 1.10,2013-02-21 23:34:00,
2013-02-21 18:49:00,18.8,15.0,30.42,ESE,120,4.0,7.0,85,0.00,,,0.00,weatherlink.com 1.10,2013-02-21 23:49:00,
2013-02-21 19:04:00,19.2,16.0,30.42,East,99,7.0,9.0,86,0.00,,,0.00,weatherlink.com 1.10,2013-02-22 00:04:00,
2013-02-21 19:19:00,19.8,16.0,30.40,East,88,18.0,18.0,84,0.00,,,0.00,weatherlink.com 1.10,2013-02-22 00:19:00,
2013-02-21 19:34:00,20.0,17.0,30.40,East,98,19.0,20.0,86,0.00,,,0.00,weatherlink.com 1.10,2013-02-22 00:34:00,
2013-02-21 19:49:00,20.3,17.0,30.40,East,90,21.0,21.0,88,0.00,,,0.00,weatherlink.com 1.10,2013-02-22 00:49:00,
2013-02-21 20:04:00,20.2,17.0,30.39,East,84,17.0,21.0,88,0.00,,,0.00,weatherlink.com 1.10,2013-02-22 01:04:00,
2013-02-21 20:20:00,20.6,18.0,30.40,East,87,18.0,20.0,89,0.00,,,0.00,weatherlink.com 1.10,2013-02-22 01:20:00,
2013-02-21 20:35:00,20.8,18.0,30.40,East,84,13.0,15.0,89,0.00,,,0.00,weatherlink.com 1.10,2013-02-22 01:35:00,
2013-02-21 20:50:00,20.9,18.0,30.40,East,89,10.0,15.0,89,0.00,,,0.00,weatherlink.com 1.10,2013-02-22 01:50:00,
2013-02-21 21:05:00,21.1,18.0,30.38,East,87,14.0,15.0,89,0.00,,,0.00,weatherlink.com 1.10,2013-02-22 02:05:00,
2013-02-21 21:20:00,21.4,19.0,30.37,East,82,15.0,15.0,90,0.00,,,0.00,weatherlink.com 1.10,2013-02-22 02:20:00,
2013-02-21 21:35:00,22.0,20.0,30.37,East,83,18.0,21.0,91,0.00,,,0.00,weatherlink.com 1.10,2013-02-22 02:35:00,
2013-02-21 21:50:00,22.2,20.0,30.36,East,86,18.0,24.0,91,0.00,,,0.00,weatherlink.com 1.10,2013-02-22 02:50:00,
2013-02-21 22:05:00,22.4,21.0,30.36,East,86,18.0,20.0,92,0.00,,,0.00,weatherlink.com 1.10,2013-02-22 03:05:00,
2013-02-21 22:20:00,22.6,21.0,30.36,East,91,18.0,19.0,93,0.00,,,0.00,weatherlink.com 1.10,2013-02-22 03:20:00,
2013-02-21 22:35:00,22.7,21.0,30.35,East,82,17.0,21.0,92,0.00,,,0.00,weatherlink.com 1.10,2013-02-22 03:35:00,
2013-02-21 22:50:00,22.9,21.0,30.35,East,83,21.0,22.0,93,0.00,,,0.00,weatherlink.com 1.10,2013-02-22 03:50:00,
2013-02-21 23:05:00,22.9,21.0,30.35,East,81,19.0,21.0,92,0.00,,,0.00,weatherlink.com 1.10,2013-02-22 04:05:00,
2013-02-21 23:20:00,23.1,21.0,30.34,ENE,78,21.0,21.0,93,0.00,,,0.00,weatherlink.com 1.10,2013-02-22 04:20:00,
2013-02-21 23:36:00,23.3,21.0,30.33,East,88,22.0,25.0,92,0.00,,,0.00,weatherlink.com 1.10,2013-02-22 04:36:00,
2013-02-21 23:51:00,23.4,22.0,30.33,East,92,18.0,20.0,92,0.00,,,0.00,weatherlink.com 1.10,2013-02-22 04:51:00,